timestamp,wind_dir_avg,wind_spd_max_dir,wind_spd_avg,wind_spd_gust,battery_voltage,lat,long
2018-05-03 00:00:00+00:00,228.0,230.0,8.46,9.43,,47.59359,-54.27349
2018-05-03 00:10:00+00:00,236.0,240.0,8.67,9.48,,47.59359,-54.27349
2018-05-03 00:20:00+00:00,228.0,232.0,8.53,9.59,,47.59359,-54.27349
2018-05-03 00:30:00+00:00,230.0,232.0,8.82,9.74,,47.59359,-54.27349
2018-05-03 00:40:00+00:00,223.0,222.0,8.83,9.58,,47.59359,-54.27349
2018-05-03 00:50:00+00:00,220.0,225.0,9.62,10.31,,47.59359,-54.27349
2018-05-03 01:00:00+00:00,229.0,228.0,7.27,8.05,,47.59359,-54.27349
2018-05-03 01:10:00+00:00,220.0,227.0,7.33,8.09,,47.59359,-54.27349
2018-05-03 01:20:00+00:00,224.0,224.0,7.6,8.08,,47.59359,-54.27349
2018-05-03 01:30:00+00:00,218.0,219.0,8.08,8.84,,47.59359,-54.27349
2018-05-03 01:40:00+00:00,223.0,219.0,8.0,8.75,,47.59359,-54.27349
2018-05-03 01:50:00+00:00,227.0,225.0,7.27,8.7,,47.59359,-54.27349
2018-05-03 02:00:00+00:00,233.0,233.0,8.76,9.95,,47.59359,-54.27349
2018-05-03 02:10:00+00:00,240.0,236.0,7.32,8.16,,47.59359,-54.27349
2018-05-03 02:20:00+00:00,221.0,222.0,7.27,7.89,,47.59359,-54.27349
2018-05-03 02:30:00+00:00,232.0,225.0,6.81,8.03,,47.59359,-54.27349
2018-05-03 02:40:00+00:00,224.0,228.0,4.56,5.07,,47.59359,-54.27349
2018-05-03 02:50:00+00:00,234.0,229.0,5.03,5.66,,47.59359,-54.27349
2018-05-03 03:00:00+00:00,220.0,218.0,4.22,4.75,,47.59359,-54.27349
2018-05-03 03:10:00+00:00,215.0,216.0,6.76,7.42,,47.59359,-54.27349
2018-05-03 03:20:00+00:00,228.0,227.0,7.62,8.87,,47.59359,-54.27349
2018-05-03 03:30:00+00:00,230.0,232.0,8.12,8.85,,47.59359,-54.27349
2018-05-03 03:40:00+00:00,229.0,231.0,8.0,9.11,,47.59359,-54.27349
2018-05-03 03:50:00+00:00,222.0,227.0,7.43,7.86,,47.59359,-54.27349
2018-05-03 04:00:00+00:00,228.0,231.0,6.99,7.91,,47.59359,-54.27349
2018-05-03 04:10:00+00:00,226.0,230.0,6.47,7.22,,47.59359,-54.27349
2018-05-03 04:20:00+00:00,226.0,224.0,7.83,8.59,,47.59359,-54.27349
2018-05-03 04:30:00+00:00,223.0,225.0,6.21,6.89,,47.59359,-54.27349
2018-05-03 04:40:00+00:00,229.0,234.0,6.83,7.58,,47.59359,-54.27349
2018-05-03 04:50:00+00:00,226.0,224.0,6.47,8.02,,47.59359,-54.27349
2018-05-03 05:00:00+00:00,227.0,226.0,6.82,7.7,,47.59359,-54.27349
2018-05-03 05:10:00+00:00,234.0,235.0,8.51,9.47,,47.59359,-54.27349
2018-05-03 05:20:00+00:00,229.0,229.0,7.72,8.62,,47.59359,-54.27349
2018-05-03 05:30:00+00:00,229.0,219.0,5.85,6.73,,47.59359,-54.27349
2018-05-03 05:40:00+00:00,230.0,230.0,4.68,5.28,,47.59359,-54.27349
2018-05-03 05:50:00+00:00,228.0,227.0,5.26,5.78,,47.59359,-54.27349
2018-05-03 06:00:00+00:00,226.0,226.0,5.29,5.92,,47.59359,-54.27349
2018-05-03 06:10:00+00:00,225.0,225.0,5.94,6.51,,47.59359,-54.27349
2018-05-03 06:20:00+00:00,229.0,229.0,6.95,7.77,,47.59359,-54.27349
2018-05-03 06:30:00+00:00,228.0,230.0,6.43,7.31,,47.59359,-54.27349
2018-05-03 06:40:00+00:00,228.0,228.0,5.34,6.29,,47.59359,-54.27349
2018-05-03 06:50:00+00:00,225.0,227.0,5.91,6.65,,47.59359,-54.27349
2018-05-03 07:00:00+00:00,229.0,228.0,4.85,5.43,,47.59359,-54.27349
2018-05-03 07:10:00+00:00,235.0,237.0,4.26,4.9,,47.59359,-54.27349
2018-05-03 07:20:00+00:00,230.0,231.0,5.18,5.66,,47.59359,-54.27349
2018-05-03 07:30:00+00:00,226.0,226.0,5.47,6.09,,47.59359,-54.27349
2018-05-03 07:40:00+00:00,231.0,232.0,6.3,7.01,,47.59359,-54.27349
2018-05-03 07:50:00+00:00,241.0,240.0,4.53,5.42,,47.59359,-54.27349
2018-05-03 08:00:00+00:00,242.0,246.0,4.09,4.5,,47.59359,-54.27349
2018-05-03 08:30:00+00:00,245.0,249.0,3.04,3.28,,47.59359,-54.27349
2018-05-03 10:30:00+00:00,212.0,218.0,1.13,1.31,,47.59359,-54.27349
2018-05-03 10:40:00+00:00,192.0,196.0,0.9,0.97,,47.59359,-54.27349
2018-05-03 10:50:00+00:00,51.0,45.0,0.35,0.41,,47.59359,-54.27349
2018-05-03 11:00:00+00:00,47.0,47.0,2.1,2.17,,47.59359,-54.27349
2018-05-03 11:10:00+00:00,46.0,46.0,2.71,2.72,,47.59359,-54.27349
2018-05-03 11:30:00+00:00,42.0,43.0,4.31,4.56,,47.59359,-54.27349
2018-05-03 11:40:00+00:00,41.0,42.0,4.77,5.06,,47.59359,-54.27349
2018-05-03 11:50:00+00:00,46.0,48.0,5.04,5.34,,47.59359,-54.27349
2018-05-03 12:00:00+00:00,50.0,50.0,5.28,5.55,,47.59359,-54.27349
2018-05-03 12:10:00+00:00,49.0,47.0,5.84,6.5,,47.59359,-54.27349
2018-05-03 12:20:00+00:00,42.0,45.0,6.07,6.69,,47.59359,-54.27349
2018-05-03 12:30:00+00:00,51.0,51.0,6.79,7.5,,47.59359,-54.27349
2018-05-03 12:40:00+00:00,46.0,46.0,7.47,8.33,,47.59359,-54.27349
2018-05-03 12:50:00+00:00,52.0,54.0,10.43,12.07,,47.59359,-54.27349
2018-05-03 13:00:00+00:00,49.0,46.0,11.59,12.82,,47.59359,-54.27349
2018-05-03 13:10:00+00:00,52.0,54.0,11.55,13.59,,47.59359,-54.27349
2018-05-03 13:20:00+00:00,51.0,48.0,11.49,13.38,,47.59359,-54.27349
2018-05-03 13:30:00+00:00,52.0,50.0,12.51,13.75,,47.59359,-54.27349
2018-05-03 13:40:00+00:00,52.0,53.0,12.76,13.81,,47.59359,-54.27349
2018-05-03 13:50:00+00:00,52.0,48.0,11.87,13.11,,47.59359,-54.27349
2018-05-03 14:00:00+00:00,52.0,47.0,11.75,13.55,,47.59359,-54.27349
2018-05-03 14:10:00+00:00,53.0,54.0,10.59,12.16,,47.59359,-54.27349
2018-05-03 14:20:00+00:00,51.0,55.0,10.38,11.47,,47.59359,-54.27349
2018-05-03 14:30:00+00:00,52.0,50.0,11.16,12.29,,47.59359,-54.27349
2018-05-03 14:40:00+00:00,51.0,53.0,10.72,11.88,,47.59359,-54.27349
2018-05-03 14:50:00+00:00,53.0,54.0,11.17,12.24,,47.59359,-54.27349
2018-05-03 15:00:00+00:00,49.0,54.0,10.42,11.37,,47.59359,-54.27349
2018-05-03 15:10:00+00:00,52.0,53.0,11.71,12.65,,47.59359,-54.27349
2018-05-03 15:20:00+00:00,53.0,52.0,10.69,12.08,,47.59359,-54.27349
2018-05-03 15:30:00+00:00,55.0,54.0,12.37,13.28,,47.59359,-54.27349
2018-05-03 15:40:00+00:00,56.0,53.0,11.69,13.36,,47.59359,-54.27349
2018-05-03 15:50:00+00:00,53.0,51.0,10.49,11.99,,47.59359,-54.27349
2018-05-03 16:00:00+00:00,58.0,61.0,10.46,11.68,,47.59359,-54.27349
2018-05-03 16:10:00+00:00,55.0,57.0,10.84,12.68,,47.59359,-54.27349
2018-05-03 16:20:00+00:00,51.0,49.0,11.23,12.44,,47.59359,-54.27349
2018-05-03 16:30:00+00:00,52.0,54.0,11.35,12.69,,47.59359,-54.27349
2018-05-03 16:40:00+00:00,54.0,53.0,10.68,11.65,,47.59359,-54.27349
2018-05-03 16:50:00+00:00,57.0,56.0,9.23,10.8,,47.59359,-54.27349
2018-05-03 17:00:00+00:00,55.0,61.0,9.1,9.93,,47.59359,-54.27349
2018-05-03 17:10:00+00:00,53.0,51.0,9.76,10.81,,47.59359,-54.27349
2018-05-03 17:20:00+00:00,63.0,63.0,7.51,8.83,,47.59359,-54.27349
2018-05-03 17:30:00+00:00,83.0,84.0,7.05,7.79,,47.59359,-54.27349
2018-05-03 17:40:00+00:00,83.0,83.0,8.29,8.86,,47.59359,-54.27349
2018-05-03 17:50:00+00:00,81.0,83.0,7.59,8.71,,47.59359,-54.27349
2018-05-03 18:00:00+00:00,80.0,97.0,8.23,9.56,,47.59359,-54.27349
2018-05-03 18:10:00+00:00,75.0,73.0,8.97,10.41,,47.59359,-54.27349
2018-05-03 18:20:00+00:00,76.0,81.0,9.32,10.57,,47.59359,-54.27349
2018-05-03 18:30:00+00:00,72.0,71.0,9.52,11.04,,47.59359,-54.27349
2018-05-03 18:40:00+00:00,73.0,72.0,9.52,10.6,,47.59359,-54.27349
2018-05-03 18:50:00+00:00,75.0,74.0,7.94,9.41,,47.59359,-54.27349
2018-05-03 19:00:00+00:00,76.0,76.0,10.23,11.25,,47.59359,-54.27349
2018-05-03 19:10:00+00:00,68.0,65.0,9.78,11.18,,47.59359,-54.27349
2018-05-03 19:20:00+00:00,72.0,68.0,8.05,9.19,,47.59359,-54.27349
2018-05-03 19:30:00+00:00,71.0,71.0,9.84,10.97,,47.59359,-54.27349
2018-05-03 19:40:00+00:00,79.0,81.0,9.15,9.89,,47.59359,-54.27349
2018-05-03 19:50:00+00:00,75.0,71.0,7.77,9.25,,47.59359,-54.27349
2018-05-03 20:00:00+00:00,74.0,78.0,7.69,8.88,,47.59359,-54.27349
2018-05-03 20:10:00+00:00,76.0,73.0,8.1,9.13,,47.59359,-54.27349
2018-05-03 20:20:00+00:00,69.0,70.0,7.51,8.86,,47.59359,-54.27349
2018-05-03 20:30:00+00:00,60.0,58.0,8.19,10.23,,47.59359,-54.27349
2018-05-03 20:40:00+00:00,52.0,53.0,9.36,10.83,,47.59359,-54.27349
2018-05-03 20:50:00+00:00,61.0,58.0,8.74,10.09,,47.59359,-54.27349
2018-05-03 21:00:00+00:00,52.0,52.0,9.59,11.28,,47.59359,-54.27349
2018-05-03 21:10:00+00:00,54.0,53.0,10.68,11.99,,47.59359,-54.27349
2018-05-03 21:20:00+00:00,47.0,49.0,10.56,11.42,,47.59359,-54.27349
2018-05-03 21:30:00+00:00,49.0,53.0,9.48,10.96,,47.59359,-54.27349
2018-05-03 21:40:00+00:00,50.0,52.0,10.23,11.13,,47.59359,-54.27349
2018-05-03 21:50:00+00:00,52.0,53.0,9.43,10.65,,47.59359,-54.27349
2018-05-03 22:00:00+00:00,47.0,45.0,10.48,11.05,,47.59359,-54.27349
2018-05-03 22:10:00+00:00,47.0,44.0,9.79,11.09,,47.59359,-54.27349
2018-05-03 22:20:00+00:00,47.0,47.0,9.32,10.36,,47.59359,-54.27349
2018-05-03 22:30:00+00:00,53.0,53.0,8.57,9.9,,47.59359,-54.27349
2018-05-03 22:40:00+00:00,50.0,52.0,8.87,10.41,,47.59359,-54.27349
2018-05-03 22:50:00+00:00,53.0,54.0,10.35,11.31,,47.59359,-54.27349
2018-05-03 23:00:00+00:00,50.0,51.0,9.21,10.33,,47.59359,-54.27349
2018-05-03 23:10:00+00:00,55.0,55.0,10.03,11.14,,47.59359,-54.27349
2018-05-03 23:20:00+00:00,57.0,55.0,9.95,11.77,,47.59359,-54.27349
2018-05-03 23:30:00+00:00,54.0,56.0,11.82,13.15,,47.59359,-54.27349
2018-05-03 23:40:00+00:00,46.0,49.0,11.63,13.33,,47.59359,-54.27349
2018-05-03 23:50:00+00:00,50.0,50.0,10.55,12.48,,47.59359,-54.27349
